Regional Weather Roundup
Issued by NWS

Home | Current Version | Previous Version | Text Only | Print | Product List | Glossary On
Versions: 1 2 3 4 5 6 7 8 9 10 11 12 13 14 15 16 17 18 19 20 21 22 23 24 25 26 27 28 29 30 31 32 33 34 35 36 37 38 39 40 41 42 43 44 45 46 47 48 49 50
000
ASUS45 KBOU 091007
RWRCO

WEATHER ROUNDUP FOR COLORADO
NATIONAL WEATHER SERVICE DENVER/BOULDER CO
300 AM MST TUE FEB 09 2016

NOTE: "FAIR" INDICATES FEW OR NO CLOUDS BELOW 12000 FEET WITH NO
SIGNIFICANT WEATHER AND/OR OBSTRUCTIONS TO VISIBILITY.

COZ001>005-013-030-031-091100-
...NORTHWEST COLORADO...

CITY           SKY/WX    TMP DP  RH WIND       PRES   REMARKS
CRAIG          CLOUDY    -6 -10  83 CALM      30.54S
HAYDEN         CLOUDY    18  10  73 E13       30.51S WCI   4
MEEKER         CLOUDY    10   4  76 CALM      30.51F
MOUNT WERNER   NOT AVBL
STEAMBOAT SPGS   N/A     10   8  91 CALM      30.53R
WALDEN         CLOUDY    10   5  79 E7        30.48S WCI   0
$$

COZ006>008-011-091100-
...WEST CENTRAL VALLEYS...

CITY           SKY/WX    TMP DP  RH WIND       PRES   REMARKS
GRAND JUNCTION CLOUDY    20  18  92 E6        30.52F WCI  12
MONTROSE       CLOUDY    19  13  77 S9        30.54R WCI   8
EAGLE          CLOUDY    10  10 100 E3        30.58R
RIFLE          CLOUDY    13   8  81 S5        30.54S WCI   5
DELTA          CLOUDY    25  20  83 CALM      30.54S
NUCLA          CLOUDY    23  18  80 SE7       30.53S WCI  15
$$

COZ017>023-064>068-091100-
...SOUTHWEST COLORADO...

CITY           SKY/WX    TMP DP  RH WIND       PRES   REMARKS
DURANGO        CLOUDY    18  13  80 VRB3      30.40F
CORTEZ         CLOUDY    22  17  81 E9        30.43S WCI  12
PAGOSA SPRINGS CLOUDY    19  18  94 CALM      30.41F
TELLURIDE      CLOUDY    25   4  41 SE5       30.50S WCI  19
WOLF CREEK PAS CLOUDY    27  -8  22 NE12      30.52S WCI  16
$$

COZ009-010-012-014-032>034-037-058>063-091100-
...CENTRAL COLORADO...

CITY           SKY/WX    TMP DP  RH WIND       PRES   REMARKS
ASPEN          CLOUDY    14   9  80 S10       30.51S WCI   1
BUENA VISTA    CLOUDY    30  15  53 NW20      30.40S WCI  17
COPPER MTN     CLOUDY    21  10  63 W15       30.49S WCI   8
BERTHOUD PASS  FAIR      10   0  61 N21G32    30.44S WCI  -9
COTTONWOOD PAS CLOUDY    32   1  27 W13G24    30.42R WCI  22
GUNNISON       CLOUDY    -6 -24  41 CALM      30.57R
KREMMLING      CLOUDY    -2  -8  78 CALM      30.56S
LEADVILLE      CLOUDY    14   9  80 N13       30.46R WCI   0
MONARCH PASS   CLOUDY    18  10  73 MISG      30.57R
SALIDA         NOT AVBL
SUNLIGHT       CLOUDY    23  18  80 W5          N/A  WCI  17
WILKERSON PASS CLOUDY    27  -8  22 NW13G26   30.43S WCI  16
$$

COZ069>075-091100-
...SAN LUIS VALLEY/SANGRE DE CRISTO MOUNTAINS...

CITY           SKY/WX    TMP DP  RH WIND       PRES   REMARKS
ALAMOSA        CLOUDY    18  13  80 W3        30.41S
LA VETA PASS   CLOUDY    23  14  68 MISG      30.39S
SAGUACHE       CLOUDY    30  16  55 NW14      30.42S WCI  20
$$

COZ035-036-038>040-091100-
...NORTHERN COLORADO FRONT RANGE...

CITY           SKY/WX    TMP DP  RH WIND       PRES   REMARKS
DENVER INTL AP CLOUDY    28  19  69 S7        30.28S WCI  21
DMNS CITY PARK   N/A     29  21  71 S5        30.30S WCI  24
AURORA         PTCLDY    31  24  75 S12       30.30R WCI  22
FRONT RANGE AP   N/A     25  19  80 S12       30.29S WCI  14
ERIE MUNI ARPT CLOUDY    24  21  87 CALM      30.28F
BOULDER MUN AP CLOUDY    32  21  64 S3        30.28F
CENTENNIAL     CLOUDY    28  18  66 SE6       30.30R WCI  22
BROOMFIELD     CLOUDY    34  21  60 CALM      30.29F
FORT COLLINS   CLOUDY    27  19  74 CALM      30.29F
LONGMONT       CLOUDY    22  15  75 NW7       30.30F WCI  14
$$

COZ041-046-047-076>085-087-088-091100-
...PIKES PEAK/PALMER DIVIDE AND SOUTHERN FOOTHILLS...

CITY           SKY/WX    TMP DP  RH WIND       PRES   REMARKS
COLO. SPRINGS  CLOUDY    23  15  71 N8        30.34S WCI  14
A. F. ACADEMY  CLOUDY    15  11  85 N9        30.33S WCI   3
SCHRIEVER AFB  NOT AVBL
ELLICOTT       NOT AVBL
FALCON         NOT AVBL
FORT CARSON    CLOUDY    26  19  75 NW10      30.32S WCI  15
LIMON          CLOUDY    19  14  81 NW8       30.30S WCI   9
MONUMENT HILL  CLOUDY    23  14  68 S10       30.33S WCI  12
TRINIDAD       CLOUDY    28  19  69 SW10      30.34R WCI  19
$$

COZ042>045-048>051-090-091-091100-
...NORTHEAST COLORADO...

CITY           SKY/WX    TMP DP  RH WIND       PRES   REMARKS
GREELEY ARPT   CLOUDY    16  16 100 NW7       30.30F WCI   6
AKRON          CLEAR     30  22  72 W17       30.24S WCI  18
BURLINGTON     CLEAR     32  22  66 NW16      30.23F WCI  21
WRAY           CLOUDY    37  27  66 NW20      30.22F
STERLING       CLEAR     36  27  69 NW14      30.24F
HOLYOKE        CLOUDY    41  28  60 NW18G25   30.20F
FORT MORGAN    CLEAR     21  18  88 W7        30.29S WCI  12
$$

COZ086-089-092>099-091100-
...SOUTHEAST COLORADO...

CITY           SKY/WX    TMP DP  RH WIND       PRES   REMARKS
PUEBLO         CLOUDY    24  20  84 W7        30.34S WCI  16
LA JUNTA       CLEAR     28  23  81 W13       30.32S WCI  17
LAMAR          CLEAR     29  25  85 W10       30.29S WCI  20
SPRINGFIELD      N/A     30  23  75 W10       30.30F WCI  21
$$



USA.gov is the U.S. government's official web portal to all federal, state and local government web resources and services.